Skip Page Navigation
NASA JPL Caltech
NASA Logo - Jet Propulsion Laboratory + View the NASA Portal
+ Center for Near-Earth Object Studies
JPL Home Earth Solar System Stars & Galaxies Technology
JPL Solar System Dynamics
BODIES ORBITS EPHEMERIDES TOOLS PHYSICAL DATA DISCOVERY FAQ SITE MAP
IMPORTANT: The SSD Announcement email list is now available. Major changes are coming in the near future, including possible hostname and/or URL changes. To be notified of such changes, subscribe to this email list.

Please visit this page for more details.


JPL Small-Body Database Browser
Search: [ help ]  
10932 Rebentrost (1998 DL1)
Classification: Main-belt Asteroid          SPK-ID: 2010932
Ephemeris | Orbit Diagram | Orbital Elements | Mission Design | Physical Parameters | Discovery Circumstances ]

[ show orbit diagram ]
Orbital Elements at Epoch 2458600.5 (2019-Apr-27.0) TDB
Reference: JPL 30 (heliocentric ecliptic J2000)
 Element Value Uncertainty (1-sigma)   Units 
e .1625503184508489 3.093e-08  
a 2.430167965765377 7.8272e-09 au
q 2.035143389041163 7.7809e-08 au
i 12.67372908530344 3.7266e-06 deg
node 180.609667594206 1.3889e-05 deg
peri 252.6496084251348 1.8008e-05 deg
M 269.5796076485556 1.2262e-05 deg
tp 2458948.049566302557
(2020-Apr-08.54956630)
4.7604e-05 TDB
period 1383.734803788671
3.79
6.6852e-06
1.83e-08
d
yr
n .260165458738422 1.2569e-09 deg/d
Q 2.825192542489591 9.0996e-09 au
  Orbit Determination Parameters
   # obs. used (total)      2011  
   data-arc span      13932 days (38.14 yr)  
   first obs. used      1981-10-05  
   last obs. used      2019-11-27  
   planetary ephem.      DE431  
   SB-pert. ephem.      SB431-N16  
   condition code      0  
   norm. resid. RMS      .4745  
   source      ORB  
   producer      Otto Matic  
   solution date      2019-Dec-03 22:28:48  

Additional Information
 Earth MOID = 1.08849 au 
 Jupiter MOID = 2.56285 au 
 T_jup = 3.457 
[ show covariance matrix ]

Ephemeris | Orbit Diagram | Orbital Elements | Mission Design | Physical Parameters | Discovery Circumstances ]

Physical Parameter Table
Parameter Symbol Value Units Sigma Reference Notes
absolute magnitude H 13.4   n/a MPO412262  
diameter diameter 7.512 km 0.131 urn:nasa:pds:neowise_diameters_albedos::2.0[mainbelt] (http://adsabs.harvard.edu/abs/2011ApJ...741...68M)  
geometric albedo albedo 0.137   0.016 urn:nasa:pds:neowise_diameters_albedos::2.0[mainbelt] (http://adsabs.harvard.edu/abs/2011ApJ...741...68M)  

10932 Rebentrost           Discovered 1998 Feb. 18 by. G. Lehmann at Drebach.
David Rebentrost (1614-1703) worked in Drebach as a vicar, doctor and herbalist. The garden he designed for his vicarage received wide fame. As a reward for curing elector Johann Georg II, he was invited to pick some plants from the elector's garden. The rare species of crocus he selected continues to grow only in Drebach.
NOTE: some special characters may not display properly (any characters within {} are an attempt to place the proper accent above a character)
Reference: 19990928/MPCPages.arcLast Updated: 2010-06-11

Alternate Designations
 1998 DL1 = 1981 TU = 1983 FS 
Ephemeris | Orbit Diagram | Orbital Elements | Mission Design | Physical Parameters | Discovery Circumstances ]
ABOUT SSD CREDITS/AWARDS PRIVACY/COPYRIGHT GLOSSARY LINKS
FirstGov 2019-Dec-06 21:25 UT
(server date/time)  
NASA Home Page
Site Manager:   Ryan S. Park
Webmaster  Alan B. Chamberlin